Location: Fort Worth, Tx
(32.7431°N, 97.3695°W)
Time: 11:55:41
(UTC-04:00)

Tiros 1 - Pass Details

Date: 25 February 2024
Orbit: 625 x 657 km, 48.4° (Epoch: 24 April)

Event Time Altitude Azimuth Distance (km) Brightness Sun altitude
Rises 20:08:05 0° 198° (SSW) 2,948 10.8 -10.2°
Reaches altitude 10° 20:10:46 10° 184° (S) 2,046 9.8 -10.7°
Maximum altitude 20:14:33 24° 131° (SE) 1,345 8.4 -11.5°
Enters shadow 20:16:51 17° 92° (E) 1,645 8.6 -12.0°
